This is the latest recevied weather packets stored in our database for station/object YO4CIL-MG. If no packets are shown the sender has not sent any weather packets the latest 10 day(s).
| Time | Temp. | Humidity | Pressure | Rain* | Wind** | Luminosity | Snow |
|---|---|---|---|---|---|---|---|
| 1777711521 | 13.33° C | 47% | 1023.5 hPa | - | - | - | - |
| 1777710921 | 13.89° C | 47% | 1023.5 hPa | - | - | - | - |
| 1777710321 | 13.33° C | 47% | 1023.5 hPa | - | - | - | - |
| 1777709721 | 13.33° C | 47% | 1023.6 hPa | - | - | - | - |
| 1777709121 | 13.89° C | 47% | 1023.5 hPa | - | - | - | - |
| 1777708521 | 12.78° C | 46% | 1023.5 hPa | - | - | - | - |
| 1777707921 | 12.78° C | 46% | 1023.4 hPa | - | - | - | - |
| 1777707321 | 12.22° C | 44% | 1023.5 hPa | - | - | - | - |
| 1777706721 | 12.22° C | 44% | 1023.4 hPa | - | - | - | - |
| 1777706121 | 12.78° C | 42% | 1023.3 hPa | - | - | - | - |
| 1777705521 | 13.33° C | 44% | 1023.4 hPa | - | - | - | - |
| 1777704921 | 12.78° C | 43% | 1023.3 hPa | - | - | - | - |
| 1777704321 | 12.22° C | 41% | 1023.2 hPa | - | - | - | - |
| 1777703721 | 11.67° C | 42% | 1023.3 hPa | - | - | - | - |
| 1777703121 | 11.11° C | 47% | 1023.2 hPa | - | - | - | - |
| 1777702522 | 10.56° C | 50% | 1023.2 hPa | - | - | - | - |
| 1777701921 | 10° C | 53% | 1023.2 hPa | - | - | - | - |
| 1777701321 | 9.44° C | 55% | 1023.3 hPa | - | - | - | - |
| 1777700721 | 9.44° C | 53% | 1023.3 hPa | - | - | - | - |
| 1777700121 | 9.44° C | 52% | 1023.2 hPa | - | - | - | - |
| 1777699521 | 9.44° C | 55% | 1023.1 hPa | - | - | - | - |
| 1777698921 | 8.33° C | 56% | 1023.1 hPa | - | - | - | - |
| 1777698321 | 7.78° C | 57% | 1023.2 hPa | - | - | - | - |
| 1777697721 | 7.78° C | 58% | 1023.1 hPa | - | - | - | - |
| 1777697121 | 7.22° C | 61% | 1023.1 hPa | - | - | - | - |
* Rain since midnight (hover to see other rain measurements)
** Current wind speed in m/s (hover to see current wind gust speed)